Weather History for Kingston, Jamaica

Change the Weather History Date:

Sunday, September 11, 2011

  Actual Average Record
Temperature  
Mean Temperature 82 °F -  
Max Temperature 88 °F 87 °F 93 °F (1998)
Min Temperature 77 °F 78 °F 73 °F (2004)
Cooling Degree Days 18    
Growing Degree Days 32 (Base 50)    
Moisture  
Dew Point 67 °F    
Average Humidity 58    
Maximum Humidity 74    
Minimum Humidity 37    
Precipitation  
Precipitation 0.00 in - - ()
Sea Level Pressure  
Sea Level Pressure 29.91 in    
Wind  
Wind Speed 5 mph ()    
Max Wind Speed 16 mph    
Max Gust Speed -    
Visibility 5.7 miles    
Events Thunderstorm    
Averages and records for this station are not official NWS values.
T = Trace of Precipitation, MM = Missing Value Source: Averaged Metar Reports

Daily Weather History Graph

Daily Weather History Graph

Search for Another Location

Airport:

Trip Planner

Search our weather history database for the weather conditions in past years. The results will help you decide how hot, cold, wet, or windy it might be!

Date:

Astronomy

Sep. 11, 2011 Rise Set
Actual Time 5:54 AM EST 6:12 PM EST
Civil Twilight 5:32 AM EST 6:34 PM EST
Nautical Twilight 5:07 AM EST 7:00 PM EST
Astronomical Twilight 4:41 AM EST 7:25 PM EST
Moon 5:40 PM EST (9/11) 5:10 AM EST (9/11)
Length of Visible Light 13h 02m
Length of Day
12h 18m
Full, 100% of the Moon is Illuminated
Sep 11
Full
Sep 12
Full
Sep 20
Last Quarter
Sep 27
New
Oct 3
First Quarter

Hourly Weather History & Observations

Time (EST) Temp. Heat Index Dew Point Humidity Pressure Visibility Wind Dir Wind Speed Gust Speed Precip Events Conditions
12:00 AM 78.8 °F - 69.8 °F 74% 29.92 in 6.2 mi NNW 4.6 mph - N/A   Mostly Cloudy
1:00 AM 79 °F - 67 °F 58% 29.92 in 4 mi North 9.2 mph - -   Haze
1:00 AM 78.8 °F - 66.2 °F 65% 29.92 in 6.2 mi North 9.2 mph - N/A   Mostly Cloudy
2:00 AM 78.8 °F - 66.2 °F 65% 29.89 in 6.2 mi North 6.9 mph - N/A   Mostly Cloudy
3:00 AM 78.8 °F - 64.4 °F 61% 29.89 in 6.2 mi North 5.8 mph - N/A   Mostly Cloudy
4:00 AM 79 °F - 64 °F 52% 29.90 in 4 mi North 3.5 mph - -   Haze
4:00 AM 78.8 °F - 64.4 °F 61% 29.89 in 6.2 mi North 3.5 mph - N/A   Mostly Cloudy
5:00 AM 78.8 °F - 62.6 °F 57% 29.89 in 6.2 mi North 4.6 mph - N/A   Mostly Cloudy
6:00 AM 78.8 °F - 64.4 °F 61% 29.89 in 6.2 mi NNE 4.6 mph - N/A   Mostly Cloudy
7:00 AM 81 °F - 64 °F 47% 29.94 in 4 mi WSW 2.3 mph - -   Haze
7:00 AM 80.6 °F 82.3 °F 64.4 °F 58% 29.92 in 6.2 mi WSW 2.3 mph - N/A   Mostly Cloudy
8:00 AM 80.6 °F 82.7 °F 66.2 °F 61% 29.92 in 6.2 mi WNW 4.6 mph - N/A   Mostly Cloudy
9:00 AM 80.6 °F 82.7 °F 66.2 °F 61% 29.95 in 6.2 mi NW 3.5 mph - N/A   Mostly Cloudy
10:00 AM 85 °F - 63 °F 37% 29.95 in 4 mi West 3.5 mph - -   Haze
10:00 AM 84.2 °F 85.0 °F 62.6 °F 48% 29.95 in 6.2 mi West 3.5 mph - N/A   Mostly Cloudy
11:00 AM 86.0 °F 88.2 °F 66.2 °F 51% 29.95 in 6.2 mi South 6.9 mph - N/A   Mostly Cloudy
12:00 PM 86.0 °F 88.2 °F 66.2 °F 51% 29.95 in 6.2 mi South 3.5 mph - N/A   Mostly Cloudy
1:00 PM 87 °F - 67 °F 42% 29.93 in 4 mi South 6.9 mph - -   Haze
1:00 PM 87.8 °F 91.4 °F 68.0 °F 52% 29.92 in 6.2 mi South 6.9 mph - N/A   Mostly Cloudy
2:00 PM 87.8 °F 91.4 °F 68.0 °F 52% 29.89 in 6.2 mi SSW 5.8 mph - N/A   Mostly Cloudy
3:00 PM 87.8 °F 91.4 °F 68.0 °F 52% 29.86 in 6.2 mi SSE 5.8 mph - N/A   Mostly Cloudy
4:00 PM 88 °F - 68 °F 43% 29.88 in 4 mi SE 6.9 mph - -   Haze
4:00 PM 87.8 °F 91.4 °F 68.0 °F 52% 29.83 in 6.2 mi SE 6.9 mph - N/A   Mostly Cloudy
5:00 PM 84.2 °F 89.6 °F 71.6 °F 66% 29.86 in 6.2 mi ESE 16.1 mph - N/A   Mostly Cloudy
6:00 PM 84.2 °F 89.6 °F 71.6 °F 66% 29.86 in 6.2 mi ESE 12.7 mph - N/A   Mostly Cloudy
7:00 PM 80.6 °F 83.9 °F 69.8 °F 70% 29.86 in 6.2 mi SE 11.5 mph - N/A Thunderstorm Mostly Cloudy
8:00 PM 82.4 °F 86.3 °F 69.8 °F 66% 29.92 in 6.2 mi NNW 6.9 mph - N/A   Scattered Clouds
9:00 PM 80.6 °F 84.6 °F 71.6 °F 74% 29.95 in 6.2 mi WNW 6.9 mph - N/A   Scattered Clouds
10:00 PM 81 °F - 69 °F 59% 29.99 in 4 mi NNW 6.9 mph - -   Haze
10:00 PM 80.6 °F 83.9 °F 69.8 °F 70% 29.98 in 6.2 mi NNW 6.9 mph - N/A   Scattered Clouds
11:00 PM 80.6 °F 83.9 °F 69.8 °F 70% 29.98 in 6.2 mi NNW 3.5 mph - N/A   Scattered Clouds